Flag for Brazil Weather past 2 weeks in São Paulo, São Paulo, Brazil

Now
57 °F

Overcast.


Feels Like: 56 °F
Forecast: 55 / 60 °F
Wind: 7 mph from Southeast

Location: Sao Paulo Airport

Current Time: Jul 26, 2014 at 10:12:28 AM

Latest Report: Jul 26, 2014 at 9:00 AM


Visibility: N/A

Pressure: 30.24 "Hg

Humidity: 77%

Dew point: 50 °F

Location of São PauloLocation

Historic Weather in São Paulo — Graph

°F

São Paulo temperature yesterday

Maximum temperature yesterday: 63 °F (at 12:00 AM)
Minimum temperature yesterday: 55 °F (at 8:00 PM)
Average temperature yesterday: 59 °F

Past Weeks' High & Low Weather Summary

 TemperatureHumidityPressure
High79 °F (Jul 17, 2:00 PM)88% (Jul 12, 1:00 AM)30.42 "Hg (Jul 12, 1:00 AM)
Low52 °F (Jul 20, 6:00 AM)24% (Jul 23, 4:00 PM)29.98 "Hg (Jul 24, 1:00 PM)
Average62 °F68%30.24 "Hg
* Reported Jul 11 9:00 AM — Jul 26 9:00 AM, São Paulo, Weather by CustomWeather, © 2014

Note: Actual official high and low records may vary slightly from our data, if they occured in-between our weather recording intervals... More about our weather records

Advertising

São Paulo weather history for previous 24 hours

 ConditionsComfort  
Time TempWeatherWind HumidityBarometerVisibility
9:00 AM
Jul 26
57 °FOvercast.7 mph77%30.24 "HgN/A
8:00 AM55 °FPartly sunny.6 mph82%30.21 "HgN/A
7:00 AM55 °FMostly cloudy.3 mph82%30.21 "Hg6 mi
6:00 AM55 °FPartly sunny.8 mph82%30.15 "Hg6 mi
5:00 AM55 °FLow clouds.3 mph82%30.18 "Hg5 mi
4:00 AM55 °FMostly cloudy.6 mph82%30.15 "Hg5 mi
3:00 AM55 °FMostly cloudy.3 mph82%30.18 "Hg6 mi
2:00 AM55 °FPassing clouds.3 mph82%30.18 "Hg6 mi
1:00 AM54 °FPassing clouds.3 mph82%30.21 "Hg4 mi
12:00 AM55 °FPassing clouds.6 mph82%30.21 "Hg6 mi
11:00 PM
Jul 25
55 °FPassing clouds.7 mph82%30.21 "HgN/A
10:00 PM55 °FPassing clouds.7 mph82%30.24 "HgN/A
9:00 PM55 °FPassing clouds.9 mph82%30.21 "HgN/A
8:00 PM55 °FPartly cloudy.8 mph82%30.21 "HgN/A
7:00 PM57 °FPartly cloudy.8 mph82%30.18 "Hg5 mi
6:00 PM57 °FPartly cloudy.8 mph82%30.18 "HgN/A
5:00 PM59 °FPartly cloudy.8 mph77%30.15 "HgN/A
4:00 PM63 °FPartly sunny.6 mph56%30.12 "HgN/A
3:00 PM63 °FPartly sunny.8 mph56%30.12 "HgN/A
2:00 PM63 °FPartly sunny.7 mph59%30.12 "HgN/A
1:00 PM61 °FPartly sunny.2 mph68%30.12 "HgN/A
12:00 PM61 °FBroken clouds.6 mph72%30.15 "HgN/A
11:00 AM61 °FPartly sunny.1 mph72%30.18 "HgN/A
10:00 AM57 °FLow clouds.7 mph82%30.18 "HgN/A
Weather by CustomWeather, © 2014

See weather overviewHow to use our weather pages